SWA1972 KMDW-KCMH

Flight info

Callsign SWA1972
Flight time 0h 48m
Altitude 29000
Route LEWKE GIJ SEWTO FWA BRYEN DUBLN1
Aircraft B38M/M-SDE1FGHILORVWXY/HB1

Departure

Time 2026-05-06 01:56
Airport Chicago Midway International Airport (KMDW)

Arrival

Time 2026-05-06 02:44
Airport John Glenn Columbus International Airport (KCMH)
Time Latitude Longitude Altitude Speed Heading
2026-05-06 01:35 41.78669 -87.74470 635 ft 0 kts 312°
2026-05-06 01:48 41.78659 -87.74454 636 ft 4 kts 304°
2026-05-06 01:48 41.78650 -87.74433 633 ft 2 kts 282°
2026-05-06 01:48 41.78650 -87.74417 636 ft 2 kts 251°
2026-05-06 01:48 41.78655 -87.74403 632 ft 2 kts 232°
2026-05-06 01:49 41.78663 -87.74391 634 ft 2 kts 226°
2026-05-06 01:49 41.78670 -87.74381 632 ft 2 kts 224°
2026-05-06 01:49 41.78677 -87.74373 631 ft 0 kts 223°
2026-05-06 01:50 41.78676 -87.74373 631 ft 1 kts 223°
2026-05-06 01:50 41.78669 -87.74383 633 ft 2 kts 223°
2026-05-06 01:50 41.78667 -87.74385 634 ft 0 kts 223°
2026-05-06 01:52 41.78655 -87.74400 631 ft 7 kts 223°
2026-05-06 01:53 41.78596 -87.74474 639 ft 17 kts 223°
2026-05-06 01:53 41.78547 -87.74535 635 ft 0 kts 223°
2026-05-06 01:53 41.78543 -87.74541 633 ft 3 kts 223°
2026-05-06 01:53 41.78504 -87.74587 633 ft 13 kts 213°
2026-05-06 01:54 41.78419 -87.74523 634 ft 20 kts 133°
2026-05-06 01:54 41.78327 -87.74392 637 ft 14 kts 136°
2026-05-06 01:54 41.78231 -87.74365 635 ft 15 kts 179°
2026-05-06 01:54 41.78119 -87.74364 635 ft 17 kts 179°
2026-05-06 01:55 41.77996 -87.74357 634 ft 19 kts 178°
2026-05-06 01:55 41.77958 -87.74419 637 ft 6 kts 311°
2026-05-06 01:55 41.77959 -87.74420 637 ft 0 kts 311°
2026-05-06 01:55 41.78055 -87.74557 631 ft 59 kts 314°
2026-05-06 01:56 41.78519 -87.75208 631 ft 132 kts 313°
2026-05-06 01:56 41.79258 -87.76247 980 ft 163 kts 314°
2026-05-06 01:56 41.80075 -87.77350 1796 ft 169 kts 316°
2026-05-06 01:56 41.81056 -87.78271 2632 ft 178 kts 334°
2026-05-06 01:57 41.82313 -87.78740 3192 ft 204 kts 353°
2026-05-06 01:57 41.83768 -87.78550 3978 ft 217 kts 15°
2026-05-06 01:57 41.85195 -87.77701 4790 ft 233 kts 28°
2026-05-06 01:57 41.86521 -87.76311 5527 ft 250 kts 41°
2026-05-06 01:58 41.87518 -87.74382 6522 ft 259 kts 65°
2026-05-06 01:58 41.87889 -87.71941 7214 ft 278 kts 89°
2026-05-06 01:58 41.87699 -87.69313 7975 ft 288 kts 100°
2026-05-06 01:58 41.87286 -87.66616 8700 ft 301 kts 104°
2026-05-06 01:59 41.86847 -87.63814 9452 ft 312 kts 104°
2026-05-06 01:59 41.86428 -87.60902 9919 ft 321 kts 104°
2026-05-06 01:59 41.85907 -87.58033 9994 ft 320 kts 108°
2026-05-06 01:59 41.85345 -87.55138 10065 ft 326 kts 108°
2026-05-06 02:00 41.84776 -87.52143 10559 ft 336 kts 108°
2026-05-06 02:00 41.84191 -87.49029 11079 ft 352 kts 107°
2026-05-06 02:00 41.83587 -87.45784 11656 ft 365 kts 107°
2026-05-06 02:00 41.82966 -87.42439 12296 ft 373 kts 107°
2026-05-06 02:01 41.82333 -87.39036 13073 ft 378 kts 106°
2026-05-06 02:01 41.81692 -87.35597 13792 ft 384 kts 106°
2026-05-06 02:01 41.81039 -87.32105 14424 ft 388 kts 107°
2026-05-06 02:01 41.80380 -87.28579 15098 ft 392 kts 107°
2026-05-06 02:02 41.79713 -87.25023 15727 ft 396 kts 108°
2026-05-06 02:02 41.79037 -87.21415 16348 ft 401 kts 108°
2026-05-06 02:02 41.78353 -87.17781 16973 ft 405 kts 108°
2026-05-06 02:02 41.77659 -87.14095 17581 ft 409 kts 108°
2026-05-06 02:03 41.76958 -87.10379 18177 ft 414 kts 109°
2026-05-06 02:03 41.76282 -87.06610 18668 ft 420 kts 103°
2026-05-06 02:03 41.76185 -87.02658 19175 ft 429 kts 90°
2026-05-06 02:03 41.76269 -86.98688 19588 ft 435 kts 91°
2026-05-06 02:04 41.76326 -86.94624 20072 ft 438 kts 92°
2026-05-06 02:04 41.76375 -86.90521 20536 ft 443 kts 92°
2026-05-06 02:04 41.76420 -86.86327 21001 ft 447 kts 92°
2026-05-06 02:04 41.76463 -86.82190 21449 ft 452 kts 92°
2026-05-06 02:05 41.76505 -86.77907 21906 ft 457 kts 92°
2026-05-06 02:05 41.76546 -86.73689 22351 ft 461 kts 92°
2026-05-06 02:05 41.76585 -86.69372 22777 ft 465 kts 92°
2026-05-06 02:05 41.76623 -86.65022 23218 ft 469 kts 92°
2026-05-06 02:06 41.76660 -86.60629 23609 ft 474 kts 92°
2026-05-06 02:06 41.76695 -86.56204 23970 ft 477 kts 92°
2026-05-06 02:06 41.76730 -86.51757 24419 ft 478 kts 92°
2026-05-06 02:06 41.76762 -86.47297 24796 ft 481 kts 92°
2026-05-06 02:07 41.76792 -86.42800 25158 ft 484 kts 92°
2026-05-06 02:07 41.76822 -86.38276 25527 ft 487 kts 92°
2026-05-06 02:07 41.76850 -86.33721 25883 ft 490 kts 92°
2026-05-06 02:07 41.76795 -86.29157 26230 ft 492 kts 95°
2026-05-06 02:08 41.76693 -86.24570 26621 ft 493 kts 95°
2026-05-06 02:08 41.76588 -86.19985 27078 ft 492 kts 95°
2026-05-06 02:08 41.76481 -86.15406 27514 ft 492 kts 95°
2026-05-06 02:08 41.76371 -86.10829 27971 ft 492 kts 95°
2026-05-06 02:09 41.76260 -86.06253 28396 ft 492 kts 96°
2026-05-06 02:09 41.76147 -86.01670 28790 ft 493 kts 96°
2026-05-06 02:09 41.76032 -85.97073 28924 ft 494 kts 96°
2026-05-06 02:09 41.75915 -85.92490 28894 ft 492 kts 96°
2026-05-06 02:10 41.75677 -85.83348 28892 ft 491 kts 96°
2026-05-06 02:10 41.75431 -85.74206 28891 ft 491 kts 96°
2026-05-06 02:11 41.75178 -85.65065 28891 ft 491 kts 96°
2026-05-06 02:11 41.74137 -85.56203 28869 ft 471 kts 121°
2026-05-06 02:12 41.72508 -85.52501 28895 ft 453 kts 139°
2026-05-06 02:12 41.70288 -85.49690 28887 ft 429 kts 157°
2026-05-06 02:12 41.67699 -85.47966 28847 ft 405 kts 174°
2026-05-06 02:12 41.64994 -85.46947 28878 ft 409 kts 174°
2026-05-06 02:13 41.59511 -85.44646 28880 ft 421 kts 173°
2026-05-06 02:13 41.53925 -85.42282 28868 ft 421 kts 173°
2026-05-06 02:14 41.48314 -85.39912 28891 ft 423 kts 173°
2026-05-06 02:14 41.42653 -85.37524 28878 ft 426 kts 173°
2026-05-06 02:15 41.36989 -85.35140 28885 ft 426 kts 173°
2026-05-06 02:15 41.31331 -85.32763 28888 ft 426 kts 173°
2026-05-06 02:16 41.25678 -85.30391 28902 ft 426 kts 173°
2026-05-06 02:16 41.19990 -85.28010 28907 ft 430 kts 172°
2026-05-06 02:17 41.14274 -85.25621 28908 ft 430 kts 172°
2026-05-06 02:17 41.08565 -85.23240 28907 ft 430 kts 172°
2026-05-06 02:18 41.02894 -85.20879 28875 ft 430 kts 173°
2026-05-06 02:18 41.00066 -85.19456 28887 ft 445 kts 161°
2026-05-06 02:18 40.97504 -85.17011 28899 ft 465 kts 143°
2026-05-06 02:19 40.95462 -85.13605 28906 ft 482 kts 126°
2026-05-06 02:19 40.94115 -85.09493 28765 ft 494 kts 110°
2026-05-06 02:19 40.93273 -85.05090 28097 ft 492 kts 110°
2026-05-06 02:19 40.92212 -85.00800 27341 ft 491 kts 114°
2026-05-06 02:20 40.89803 -84.92357 25922 ft 490 kts 116°
2026-05-06 02:20 40.88546 -84.88171 25241 ft 489 kts 116°
2026-05-06 02:20 40.87279 -84.84017 24592 ft 487 kts 117°
2026-05-06 02:21 40.86005 -84.79872 23967 ft 485 kts 117°
2026-05-06 02:21 40.84738 -84.75760 23332 ft 483 kts 117°
2026-05-06 02:21 40.83474 -84.71665 22609 ft 480 kts 117°
2026-05-06 02:21 40.82217 -84.67599 21902 ft 477 kts 117°
2026-05-06 02:22 40.80963 -84.63550 21227 ft 475 kts 117°
2026-05-06 02:22 40.79727 -84.59566 20984 ft 462 kts 117°
2026-05-06 02:22 40.78531 -84.55717 20966 ft 448 kts 117°
2026-05-06 02:22 40.77348 -84.51916 20885 ft 448 kts 117°
2026-05-06 02:23 40.76159 -84.48101 20890 ft 449 kts 117°
2026-05-06 02:23 40.74970 -84.44289 20892 ft 449 kts 117°
2026-05-06 02:23 40.73779 -84.40477 20892 ft 450 kts 117°
2026-05-06 02:23 40.72588 -84.36670 20895 ft 450 kts 117°
2026-05-06 02:24 40.71395 -84.32862 20895 ft 449 kts 117°
2026-05-06 02:24 40.70216 -84.29104 20897 ft 449 kts 117°
2026-05-06 02:24 40.69020 -84.25295 20906 ft 450 kts 117°
2026-05-06 02:24 40.67824 -84.21493 20889 ft 450 kts 117°
2026-05-06 02:25 40.66625 -84.17691 20901 ft 450 kts 117°
2026-05-06 02:25 40.65425 -84.13886 20892 ft 450 kts 117°
2026-05-06 02:25 40.64224 -84.10083 20908 ft 450 kts 117°
2026-05-06 02:25 40.63022 -84.06285 20889 ft 450 kts 117°
2026-05-06 02:26 40.61816 -84.02480 20898 ft 450 kts 117°
2026-05-06 02:26 40.60611 -83.98679 20891 ft 450 kts 117°
2026-05-06 02:26 40.59405 -83.94886 20887 ft 450 kts 117°
2026-05-06 02:26 40.58199 -83.91094 20443 ft 448 kts 117°
2026-05-06 02:27 40.56996 -83.87317 19906 ft 447 kts 117°
2026-05-06 02:27 40.55797 -83.83559 19382 ft 445 kts 117°
2026-05-06 02:27 40.54600 -83.79812 18860 ft 443 kts 117°
2026-05-06 02:27 40.53794 -83.77290 18515 ft 443 kts 117°
2026-05-06 02:28 40.52619 -83.73617 17985 ft 441 kts 117°
2026-05-06 02:28 40.51413 -83.69860 17397 ft 440 kts 117°
2026-05-06 02:28 40.50226 -83.66168 16826 ft 438 kts 117°
2026-05-06 02:28 40.49060 -83.62540 16266 ft 436 kts 117°
2026-05-06 02:29 40.47881 -83.58878 15729 ft 431 kts 117°
2026-05-06 02:29 40.46734 -83.55316 15198 ft 417 kts 118°
2026-05-06 02:29 40.45620 -83.51864 14684 ft 404 kts 118°
2026-05-06 02:29 40.44535 -83.48534 14245 ft 389 kts 121°
2026-05-06 02:30 40.43133 -83.45643 13821 ft 366 kts 135°
2026-05-06 02:30 40.41627 -83.43017 13395 ft 354 kts 134°
2026-05-06 02:30 40.40181 -83.40460 12956 ft 343 kts 134°
2026-05-06 02:30 40.38788 -83.37985 12529 ft 333 kts 134°
2026-05-06 02:31 40.37429 -83.35562 12093 ft 324 kts 134°
2026-05-06 02:31 40.36108 -83.33206 11684 ft 318 kts 134°
2026-05-06 02:31 40.34798 -83.30872 11275 ft 318 kts 134°
2026-05-06 02:31 40.33485 -83.28532 10875 ft 319 kts 134°
2026-05-06 02:32 40.32166 -83.26184 10476 ft 319 kts 134°
2026-05-06 02:32 40.30741 -83.24007 10088 ft 309 kts 148°
2026-05-06 02:32 40.29062 -83.22295 9698 ft 303 kts 150°
2026-05-06 02:32 40.27428 -83.20618 9267 ft 294 kts 150°
2026-05-06 02:33 40.25845 -83.18983 8852 ft 287 kts 149°
2026-05-06 02:33 40.24810 -83.17913 8579 ft 285 kts 149°
2026-05-06 02:34 40.19819 -83.12373 8025 ft 290 kts 132°
2026-05-06 02:34 40.18734 -83.10119 8026 ft 294 kts 129°
2026-05-06 02:34 40.17647 -83.07876 7995 ft 288 kts 130°
2026-05-06 02:34 40.16557 -83.05681 7695 ft 287 kts 131°
2026-05-06 02:35 40.15436 -83.03536 7399 ft 285 kts 132°
2026-05-06 02:35 40.14317 -83.01409 7149 ft 282 kts 132°
2026-05-06 02:35 40.13211 -82.99310 6898 ft 279 kts 132°
2026-05-06 02:35 40.12135 -82.97267 6655 ft 266 kts 133°
2026-05-06 02:36 40.11116 -82.95346 6418 ft 254 kts 134°
2026-05-06 02:36 40.10073 -82.93494 6201 ft 248 kts 135°
2026-05-06 02:36 40.09134 -82.91662 6046 ft 248 kts 121°
2026-05-06 02:36 40.08813 -82.89434 5985 ft 255 kts 99°
2026-05-06 02:37 40.08729 -82.87116 5727 ft 255 kts 100°
2026-05-06 02:37 40.08626 -82.84807 5348 ft 254 kts 101°
2026-05-06 02:37 40.08513 -82.82511 4954 ft 253 kts 100°
2026-05-06 02:37 40.08400 -82.80212 4547 ft 252 kts 100°
2026-05-06 02:38 40.08288 -82.77927 4130 ft 251 kts 101°
2026-05-06 02:38 40.08179 -82.75650 3710 ft 251 kts 101°
2026-05-06 02:38 40.08068 -82.73381 3311 ft 249 kts 101°
2026-05-06 02:38 40.07960 -82.71146 3053 ft 242 kts 101°
2026-05-06 02:39 40.07749 -82.69034 3014 ft 227 kts 119°
2026-05-06 02:39 40.06889 -82.67463 2972 ft 205 kts 152°
2026-05-06 02:39 40.05618 -82.66851 2972 ft 193 kts 178°
2026-05-06 02:39 40.04284 -82.66738 3001 ft 189 kts 182°
2026-05-06 02:40 40.02990 -82.66671 2973 ft 185 kts 182°
2026-05-06 02:40 40.01703 -82.66621 2998 ft 182 kts 187°
2026-05-06 02:40 40.00577 -82.67141 2940 ft 172 kts 221°
2026-05-06 02:40 39.99926 -82.68452 2985 ft 176 kts 242°
2026-05-06 02:41 39.99461 -82.69940 3007 ft 179 kts 247°
2026-05-06 02:41 39.99287 -82.71577 3006 ft 185 kts 261°
2026-05-06 02:41 39.99332 -82.73244 2941 ft 183 kts 264°
2026-05-06 02:41 39.99420 -82.74882 2751 ft 180 kts 264°
2026-05-06 02:42 39.99512 -82.76515 2524 ft 182 kts 265°
2026-05-06 02:42 39.99606 -82.78176 2324 ft 185 kts 266°
2026-05-06 02:42 39.99698 -82.79805 2078 ft 176 kts 266°
2026-05-06 02:42 39.99777 -82.81357 1867 ft 173 kts 266°
2026-05-06 02:43 39.99874 -82.82891 1637 ft 166 kts 270°
2026-05-06 02:43 39.99956 -82.84379 1396 ft 164 kts 271°
2026-05-06 02:43 40.00038 -82.85850 1149 ft 160 kts 273°
2026-05-06 02:43 40.00122 -82.87267 958 ft 152 kts 270°
2026-05-06 02:44 40.00195 -82.88592 830 ft 136 kts 272°
2026-05-06 02:44 40.00251 -82.89569 824 ft 76 kts 274°
2026-05-06 02:44 40.00282 -82.90064 828 ft 47 kts 275°
2026-05-06 02:44 40.00276 -82.90363 830 ft 24 kts 238°
2026-05-06 02:45 40.00224 -82.90410 828 ft 2 kts 195°
2026-05-06 02:45 40.00217 -82.90413 828 ft 1 kts 197°
2026-05-06 02:45 40.00216 -82.90413 828 ft 0 kts 197°
2026-05-06 02:45 40.00209 -82.90418 826 ft 4 kts 214°
2026-05-06 02:46 40.00189 -82.90484 824 ft 11 kts 233°
2026-05-06 02:46 40.00100 -82.90509 827 ft 15 kts 183°
2026-05-06 02:46 39.99989 -82.90519 827 ft 18 kts 185°
2026-05-06 02:46 39.99843 -82.90534 824 ft 24 kts 183°
2026-05-06 02:47 39.99680 -82.90547 827 ft 13 kts 177°
2026-05-06 02:47 39.99631 -82.90482 827 ft 12 kts 98°
2026-05-06 02:47 39.99624 -82.90358 827 ft 18 kts 93°
2026-05-06 02:47 39.99613 -82.90159 827 ft 24 kts 95°
2026-05-06 02:48 39.99602 -82.89978 827 ft 9 kts 95°
2026-05-06 02:48 39.99600 -82.89951 827 ft 3 kts 94°
2026-05-06 02:48 39.99595 -82.89841 827 ft 25 kts 94°
2026-05-06 02:48 39.99580 -82.89584 827 ft 30 kts 94°
2026-05-06 02:49 39.99566 -82.89304 827 ft 32 kts 94°
2026-05-06 02:49 39.99549 -82.89007 827 ft 33 kts 94°
2026-05-06 02:49 39.99530 -82.88708 827 ft 34 kts 94°
2026-05-06 02:49 39.99516 -82.88418 827 ft 21 kts 94°
2026-05-06 02:50 39.99540 -82.88324 826 ft 11 kts 26°
2026-05-06 02:50 39.99586 -82.88366 827 ft 8 kts 273°
2026-05-06 02:50 39.99589 -82.88449 827 ft 11 kts 274°
2026-05-06 02:50 39.99598 -82.88550 827 ft 9 kts 299°
2026-05-06 02:51 39.99634 -82.88562 827 ft 0 kts
2026-05-06 02:51 39.99649 -82.88560 827 ft 0 kts